User: anonymous   Login
Location: Aytr�
(46.1357°N, 1.1145°W)
Time: 01:41:11
(UTC+00:00)
Language:

Cosmos 1821 Rocket - Orbit

View from above orbital plane
View from above orbital plane
View from above satellite
View from above satellite

Ground track
Ground track

The orbit data is extracted from the following two-line orbital elements,

1 17526U 87017B   21136.17394435  .00000045  00000-0  30862-4 0  9995
2 17526  82.9044  52.2500 0039045 282.6285  77.0507 13.76893423702739
Epoch (UTC): 16 May 2021 04:10:28
Eccentricity: 0.0039045
inclination: 82.9044°
perigee height: 946 km
apogee height: 1003 km
right ascension of ascending node: 52.2500°
argument of perigee: 282.6285°
revolutions per day: 13.76893423
mean anomaly at epoch: 77.0507°
orbit number at epoch: 70273

The dashed part of the orbit path shows where the satellite is in the earth's shadow,  

DLR